• In United Kingdom
  • List of Countries
  • For 7 days
  • Water Temperature
  • Satellite Maps
  • Weather Map
  • Weather Widgets
  • user-avatar
    Login

    Hourly Weather Ganja

    Today, 18 January, Thursday

    Time Temperature Precipitation Wind Pressure Humidity
    00:00 +2°C° 0 mm 1 mps 724 mmHg 63%
    01:00 +2°C° 0 mm 1 mps 724 mmHg 62%
    02:00 +2°C° 0 mm 1 mps 723 mmHg 61%
    03:00 +2°C° 0 mm 1 mps 723 mmHg 60%
    04:00 +3°C° 0 mm 1 mps 723 mmHg 60%
    05:00 +3°C° 0 mm 1 mps 723 mmHg 59%
    06:00 +3°C° 0 mm 1 mps 723 mmHg 59%
    07:00 +3°C° 0 mm 1 mps 722 mmHg 58%
    08:00 +4°C° 0 mm 1 mps 722 mmHg 56%
    09:00 +4°C° 0 mm 1 mps 722 mmHg 55%
    10:00 +5°C° 0 mm 1 mps 722 mmHg 52%
    11:00 +6°C° 0 mm 1 mps 721 mmHg 49%
    12:00 +7°C° 0 mm 1 mps 721 mmHg 46%
    13:00 +7°C° 0 mm 1 mps 720 mmHg 46%
    14:00 +7°C° 0 mm 1 mps 720 mmHg 46%
    15:00 +7°C° 0 mm 1 mps 719 mmHg 46%
    16:00 +6°C° 0 mm 1 mps 719 mmHg 50%
    17:00 +5°C° 0 mm 1 mps 719 mmHg 53%
    18:00 +4°C° 0 mm 1 mps 719 mmHg 56%
    19:00 +4°C° 0 mm 1 mps 719 mmHg 57%
    20:00 +3°C° 0 mm 2 mps 719 mmHg 57%
    21:00 +4°C° 0 mm 2 mps 719 mmHg 57%
    22:00 +3°C° 0 mm 2 mps 719 mmHg 58%
    23:00 +3°C° 0 mm 2 mps 718 mmHg 59%

    Tomorrow, 19 January, Friday

    Time Temperature Precipitation Wind Pressure Humidity
    00:00 +2°C° 0 mm 3 mps 718 mmHg 61%
    01:00 +2°C° 0 mm 3 mps 718 mmHg 61%
    02:00 +2°C° 0 mm 3 mps 718 mmHg 62%
    03:00 +2°C° 0 mm 3 mps 718 mmHg 62%
    04:00 +1°C° 0 mm 4 mps 718 mmHg 62%
    05:00 +3°C° 0 mm 4 mps 718 mmHg 62%
    06:00 +2°C° 0 mm 5 mps 719 mmHg 61%
    07:00 +4°C° 0 mm 4 mps 719 mmHg 59%
    08:00 +4°C° 0 mm 4 mps 719 mmHg 56%
    09:00 +5°C° 0 mm 4 mps 719 mmHg 54%
    10:00 +7°C° 0 mm 4 mps 719 mmHg 51%
    11:00 +8°C° 0 mm 4 mps 719 mmHg 48%
    12:00 +11°C° 0 mm 4 mps 718 mmHg 44%
    13:00 +11°C° 0 mm 3 mps 718 mmHg 44%
    14:00 +11°C° 0 mm 3 mps 718 mmHg 45%
    15:00 +11°C° 0 mm 3 mps 718 mmHg 45%
    16:00 +10°C° 0 mm 3 mps 719 mmHg 47%
    17:00 +9°C° 0 mm 3 mps 720 mmHg 50%
    18:00 +8°C° 0 mm 3 mps 720 mmHg 52%
    19:00 +8°C° 0 mm 3 mps 720 mmHg 53%
    20:00 +8°C° 0 mm 2 mps 721 mmHg 54%
    21:00 +8°C° 0 mm 2 mps 721 mmHg 54%
    22:00 +7°C° 0 mm 3 mps 721 mmHg 55%
    23:00 +7°C° 0 mm 3 mps 721 mmHg 56%

    Day after tomorrow, 20 January, Saturday

    Time Temperature Precipitation Wind Pressure Humidity
    00:00 +7°C° 0 mm 3 mps 722 mmHg 57%
    01:00 +7°C° 0 mm 3 mps 722 mmHg 58%
    02:00 +7°C° 0 mm 3 mps 722 mmHg 59%
    03:00 +5°C° 0 mm 3 mps 723 mmHg 60%
    04:00 +5°C° 0.1 mm 3 mps 723 mmHg 62%
    05:00 +5°C° 0.1 mm 3 mps 723 mmHg 64%
    06:00 +5°C° 0.1 mm 3 mps 724 mmHg 66%
    07:00 +7°C° 0.1 mm 3 mps 724 mmHg 66%
    08:00 +7°C° 0.1 mm 3 mps 725 mmHg 65%
    09:00 +7°C° 0.1 mm 2 mps 726 mmHg 65%
    10:00 +8°C° 0.1 mm 2 mps 726 mmHg 61%
    11:00 +9°C° 0.1 mm 2 mps 726 mmHg 57%
    12:00 +10°C° 0.1 mm 2 mps 726 mmHg 53%
    13:00 +10°C° 0 mm 2 mps 726 mmHg 52%
    14:00 +10°C° 0 mm 2 mps 726 mmHg 51%
    15:00 +12°C° 0 mm 1 mps 726 mmHg 50%
    16:00 +10°C° 0 mm 1 mps 727 mmHg 54%
    17:00 +9°C° 0 mm 1 mps 727 mmHg 57%
    18:00 +8°C° 0 mm 1 mps 728 mmHg 61%
    19:00 +8°C° 0 mm 1 mps 728 mmHg 62%
    20:00 +7°C° 0 mm 1 mps 728 mmHg 63%
    21:00 +6°C° 0 mm 2 mps 729 mmHg 63%
    22:00 +7°C° 0 mm 1 mps 729 mmHg 64%
    23:00 +6°C° 0 mm 1 mps 729 mmHg 65%

    21 January, Sunday

    Time Temperature Precipitation Wind Pressure Humidity
    00:00 +6°C° 0 mm 1 mps 729 mmHg 65%
    01:00 +6°C° 0 mm 1 mps 729 mmHg 64%
    02:00 +5°C° 0 mm 2 mps 729 mmHg 63%
    03:00 +4°C° 0 mm 2 mps 729 mmHg 61%
    04:00 +4°C° 0 mm 2 mps 729 mmHg 59%
    05:00 +4°C° 0 mm 2 mps 729 mmHg 57%
    06:00 +3°C° 0 mm 3 mps 728 mmHg 55%
    07:00 +5°C° 0 mm 2 mps 728 mmHg 53%
    08:00 +6°C° 0 mm 2 mps 729 mmHg 50%
    09:00 +7°C° 0 mm 2 mps 729 mmHg 48%
    10:00 +8°C° 0 mm 2 mps 728 mmHg 46%
    11:00 +9°C° 0 mm 2 mps 728 mmHg 43%
    12:00 +10°C° 0 mm 2 mps 727 mmHg 41%
    13:00 +11°C° 0 mm 1 mps 727 mmHg 42%
    14:00 +12°C° 0 mm 1 mps 726 mmHg 42%
    15:00 +12°C° 0 mm 1 mps 726 mmHg 42%
    16:00 +11°C° 0 mm 1 mps 726 mmHg 46%
    17:00 +10°C° 0 mm 1 mps 727 mmHg 49%
    18:00 +8°C° 0 mm 2 mps 727 mmHg 52%
    19:00 +7°C° 0 mm 2 mps 727 mmHg 51%
    20:00 +7°C° 0 mm 2 mps 727 mmHg 50%
    21:00 +7°C° 0 mm 2 mps 727 mmHg 49%
    22:00 +6°C° 0 mm 2 mps 727 mmHg 48%
    23:00 +6°C° 0 mm 2 mps 727 mmHg 47%

    22 January, Monday

    Time Temperature Precipitation Wind Pressure Humidity
    00:00 +6°C° 0 mm 2 mps 726 mmHg 46%
    01:00 +6°C° 0 mm 2 mps 726 mmHg 46%
    02:00 +6°C° 0 mm 2 mps 726 mmHg 45%
    03:00 +5°C° 0 mm 2 mps 726 mmHg 45%
    04:00 +5°C° 0 mm 2 mps 725 mmHg 45%
    05:00 +5°C° 0 mm 2 mps 725 mmHg 45%
    06:00 +5°C° 0 mm 2 mps 725 mmHg 45%
    07:00 +7°C° 0 mm 1 mps 725 mmHg 44%
    08:00 +8°C° 0 mm 1 mps 725 mmHg 44%
    09:00 +8°C° 0 mm 1 mps 724 mmHg 43%
    10:00 +9°C° 0 mm 1 mps 724 mmHg 41%
    11:00 +10°C° 0 mm 1 mps 723 mmHg 40%
    12:00 +11°C° 0 mm 1 mps 722 mmHg 39%
    13:00 +11°C° 0 mm 1 mps 722 mmHg 40%
    14:00 +10°C° 0 mm 0 mps 721 mmHg 41%
    15:00 +10°C° 0 mm 0 mps 721 mmHg 42%
    16:00 +9°C° 0 mm 0 mps 721 mmHg 44%
    17:00 +9°C° 0 mm 1 mps 721 mmHg 47%
    18:00 +8°C° 0 mm 1 mps 721 mmHg 50%
    19:00 +8°C° 0 mm 1 mps 721 mmHg 49%
    20:00 +8°C° 0 mm 1 mps 721 mmHg 49%
    21:00 +7°C° 0 mm 1 mps 720 mmHg 48%
    22:00 +6°C° 0 mm 2 mps 720 mmHg 46%
    23:00 +6°C° 0 mm 2 mps 720 mmHg 45%

    23 January, Tuesday

    Time Temperature Precipitation Wind Pressure Humidity
    00:00 +6°C° 0 mm 2 mps 720 mmHg 43%
    01:00 +5°C° 0 mm 3 mps 719 mmHg 41%
    02:00 +5°C° 0 mm 3 mps 719 mmHg 40%
    03:00 +5°C° 0 mm 3 mps 719 mmHg 39%
    04:00 +4°C° 0 mm 3 mps 719 mmHg 38%
    05:00 +4°C° 0 mm 4 mps 719 mmHg 37%
    06:00 +4°C° 0 mm 4 mps 719 mmHg 37%
    07:00 +5°C° 0 mm 4 mps 719 mmHg 36%
    08:00 +6°C° 0 mm 4 mps 720 mmHg 35%
    09:00 +7°C° 0 mm 4 mps 720 mmHg 34%
    10:00 +8°C° 0 mm 4 mps 720 mmHg 31%
    11:00 +11°C° 0 mm 4 mps 720 mmHg 29%
    12:00 +12°C° 0 mm 4 mps 719 mmHg 27%
    13:00 +12°C° 0 mm 4 mps 719 mmHg 28%
    14:00 +12°C° 0 mm 4 mps 719 mmHg 29%
    15:00 +12°C° 0 mm 4 mps 720 mmHg 30%
    16:00 +11°C° 0 mm 3 mps 720 mmHg 33%
    17:00 +10°C° 0 mm 3 mps 721 mmHg 37%
    18:00 +8°C° 0 mm 3 mps 721 mmHg 40%
    19:00 +8°C° 0 mm 3 mps 721 mmHg 41%
    20:00 +8°C° 0 mm 3 mps 722 mmHg 43%
    21:00 +7°C° 0 mm 2 mps 722 mmHg 44%
    22:00 +7°C° 0 mm 2 mps 722 mmHg 45%
    23:00 +6°C° 0 mm 2 mps 722 mmHg 47%
    Show more